Showing default

MOHAMMED VI-B, 43717

Orbit data source: Space-Track

MOHAMMED VI-B, 43717 is a payload satellite owned by RMAF (MA) in SSO that was launched on Wed, 21 Nov 2018 UTC via a VEGA launch vehicle from the French Guiana (FRGUI). Payloads include a variety of satellites, spacecraft, and rockets equipped with specific instruments for various scientific and technological missions. These include communications satellites like Starlink; space stations such as the ISS; scientific satellites like the Hubble; Earth observation satellites from companies like Planet Labs, Umbra, and HawkEye 360; GPS; miniature CubeSats for education and research; and military/defense satellites.

Loading next visibility...
MOHAMMED VI-B details
Identifier
43717, 2018-095A
Orbit
SSO
Last TLE update7 hours ago
Origin
Flag of MARMAF (MA)
ManufacturerAirbus/Toulouse
MissionOperational Defense Imaging
Bus & MotorASTROSAT-1000, Unknown motor
Mass1,108 kg wet, ~900 kg dry
Launch date (UTC)
2018-11-21 (6 years ago)
Launch vehicle
VEGA
Launch site
French Guiana (FRGUI)
Object type
Payload
Rocket body
Debris
Shape & HBRHex Cyl + 3 Pan, 8 m
Radar Cross Section12.145 m², Large (>1 m²)

Expand to show TLE details & history

TLE from 7 hours ago
0 MOHAMMED VI-B
1 43717U 18095A   24361.30604589  .00002398  00000-0  34648-3 0  9996
2 43717  97.9576  70.3425 0001069 100.0750 260.0581 14.77125823328787
Epoch: 2024-12-26T07:20Z
Definitive object data (Epoch: 2024-12-26T07:20:42.364Z)
Latitude-0.00003°
Longitude-135.12135°
Altitude641.557 km
Speed7.537 km/s
True Right ascension04h 41m 22s
True Declination0° 00' 00"
Sunlit
Object was in full shadow at TLE epoch
Visualization TLE readout
Latitude11.54342°
Longitude-136.47913°
Altitude640.628 km
Speed7.539 km/s
Apparent Right ascension03h 13m 47s
Apparent Declination-14° 01' 47"
Sunlit
Object is in full shadow
Visualization observer readout
Local Sidereal Time13:15:46
Azimuth306.678° NW
Elevation-53.433°
Doppler factor1
Orbital elements
Apogee altitude636.208 km
Perigee altitude634.709 km
Semi-major axis7,013.596 km
Eccentricity0.0001069
Inclination97.9576°
RAAN70.3425°
Arg. of periapsis100.075°
True anomaly260.04603°
Mean anomaly260.0581°
Eccentric anomaly260.05207°
Mean motion3.69515 °/min
BSTAR0.00034648
Orbital period97.42 mins
Loading maneuver chart data...
Loading historical data...
Loading historical data...
Loading historical data...
Loading historical data...
Loading historical data...
Loading historical data...
Loading historical data...
Other satellites on launch #95 in the year 2018 (2018-11-21 UTC)

MOHAMMED VI-B Visibility forecast

Observer location: undefined°, undefined

Span
Click to sort rows by Start time (UTC) header in descending order
Start Az.
Max El. time (UTC)
Max El. Az.
Max El.
End time (UTC)
End Az.
8 mins2024-12-26 17:40:01.661Z14.806° NNE2024-12-26 17:44:01.661Z151.404° SSE44.426°2024-12-26 17:48:01.661Z190.838° SSW
7 mins2024-12-27 04:37:01.661Z150.369° SSE2024-12-27 04:40:01.661Z63.384° ENE41.571°2024-12-27 04:44:01.661Z354.648° N
|